Content
SEND FEEDBACK

Daily
Averages
Monthly
Summary
Switzerland

ZÜRICH, SWITZERLAND


Home > Europe > Switzerland
Elevation: 1867 feet     Latitude: 47 23N     Longitude: 008 34E

WEATHER
 
SELECT A DAY
Number of Records: 289,504;   Date Range: 7/1/96 - 10/20/14
 
SHARE

PRINT THIS DATA

[ ← Previous Day ]
WEATHER ALMANAC - FEBRUARY 6, 2013
[ Next Day → ]
[ °C ]   °F
Weather ElementAverageHighLow
Temperature32.8 °F34 °F (9:00 am)30 °F (7:00 am)
Dewpoint28.3 °F32 °F (4:20 pm)24 °F (9:00 am)
Humidity81.6 %93 % (1:50 pm)55 % (9:00 am)
Barometer29.54 in29.70 in (1:00 am)29.44 in (12:20 pm)
Wind Speed7.5 mph13.8 mph (9:50 am)
Wind Gust19.6 mph (2:20 pm)
Weather ElementAverage
Visibility4.7 mi
Wind DirectionSSW (208.3 °)

Weather ElementTotal
Precipitation---
Heating Degree Days33 (Base 65)
Averaged from 66 records on February 6, 2013
WEATHER CONDITIONS BREAKOUT
WIND DIRECTION BREAKOUT
WEATHER BY HOUR - FEBRUARY 6, 2013
[ °C ]   °F
Local TimeTemperatureDewpointHumidityBarometerVisibilityWind DirectionWind SpeedGust SpeedPrecipitationEventsConditions
12:20 AM33.8 °F28.4 °F81 %29.65 in6.2 miSW (220°)9.2 mphSnowLight Snow Showers
12:50 AM32.0 °F26.6 °F80 %29.65 in6.2 miSSW (210°)8.1 mphMostly Cloudy
1:00 AM33.0 °F27.0 °F70 %29.70 in12.0 miWSW (240°)9.2 mphSnowLight Snow Showers
1:50 AM32.0 °F26.6 °F80 %29.62 in6.2 miWest (260°)8.1 mphScattered Clouds
2:00 AM33.0 °F27.0 °F70 %29.70 inWSW (250°)5.8 mph
2:20 AM32.0 °F26.6 °F80 %29.62 in6.2 miSSW (200°)5.8 mphMostly Cloudy
2:50 AM32.0 °F26.6 °F80 %29.62 in6.2 miSouth (180°)5.8 mphMostly Cloudy
3:00 AM33.0 °F27.0 °F70 %29.69 inSW (230°)6.9 mph
3:20 AM32.0 °F26.6 °F80 %29.62 in6.2 miSW (230°)6.9 mphMostly Cloudy
3:50 AM32.0 °F26.6 °F80 %29.62 in6.2 miSSW (210°)5.8 mphMostly Cloudy
4:20 AM32.0 °F26.6 °F80 %29.59 in6.2 miSSW (200°)6.9 mphScattered Clouds
4:50 AM32.0 °F26.6 °F80 %29.56 in6.2 miSSE (160°)4.6 mphMostly Cloudy
5:00 AM33.0 °F28.0 °F73 %29.65 inSouth (170°)5.8 mph
5:20 AM32.0 °F26.6 °F80 %29.56 in6.2 miSouth (180°)8.1 mphMostly Cloudy
5:50 AM32.0 °F26.6 °F80 %29.53 in6.2 miSSW (210°)6.9 mphScattered Clouds
6:00 AM31.0 °F26.0 °F76 %29.62 inSSW (200°)5.8 mph
6:20 AM30.2 °F26.6 °F86 %29.53 in6.2 miSE (140°)6.9 mphScattered Clouds
6:50 AM30.2 °F24.8 °F80 %29.50 in6.2 miSSE (150°)5.8 mphScattered Clouds
7:00 AM30.0 °F26.0 °F78 %29.59 in12.0 miSSE (160°)4.6 mphPartly Cloudy
7:20 AM30.2 °F26.6 °F86 %29.50 in6.2 miSE (140°)6.9 mphMostly Cloudy
7:50 AM32.0 °F24.8 °F75 %29.50 in6.2 miSouth (170°)5.8 mphMostly Cloudy
8:00 AM32.0 °F26.0 °F68 %29.56 inSW (220°)5.8 mph
8:20 AM33.8 °F26.6 °F75 %29.47 in6.2 miSSE (160°)5.8 mphMostly Cloudy
8:50 AM33.8 °F24.8 °F70 %29.47 in6.2 miSW (220°)9.2 mphMostly Cloudy
9:00 AM34.0 °F24.0 °F55 %29.54 inSW (230°)11.5 mph
9:20 AM33.8 °F24.8 °F70 %29.47 in6.2 miSSW (210°)8.1 mphMostly Cloudy
9:50 AM33.8 °F24.8 °F70 %29.47 in6.2 miSSW (200°)13.8 mphSnowLight Snow Showers
10:20 AM33.8 °F24.8 °F70 %29.47 in5.6 miSSW (210°)12.7 mphSnowLight Snow Showers
10:50 AM33.8 °F26.6 °F75 %29.47 in3.7 miSSW (200°)9.2 mphSnowLight Snow Showers
11:00 AM33.0 °F27.0 °F70 %29.55 inSSW (210°)6.9 mph
11:20 AM33.8 °F28.4 °F81 %29.47 in2.8 miSouth (190°)9.2 mphSnowLight Snow Showers
11:50 AM32.0 °F28.4 °F87 %29.47 in1.9 miSouth (190°)11.5 mphSnowSnow Showers
12:00 PM33.0 °F28.0 °F76 %29.54 inSSW (210°)10.4 mph
12:20 PM33.8 °F28.4 °F81 %29.44 in3.1 miSouth (170°)10.4 mphSnowLight Snow Showers
12:50 PM33.8 °F28.4 °F81 %29.44 in2.2 miSSW (200°)6.9 mphSnowSnow Showers
1:00 PM34.0 °F29.0 °F75 %29.51 in2.0 miSSW (210°)8.1 mphSnowSnow
1:20 PM33.8 °F28.4 °F81 %29.44 in1.4 miSW (220°)8.1 mphSnowSnow Showers
1:50 PM32.0 °F30.2 °F93 %29.44 in0.6 miSSW (210°)5.8 mphSnowSnow Showers
2:00 PM33.0 °F31.0 °F89 %29.51 inSSW (210°)6.9 mph
2:20 PM32.0 °F30.2 °F93 %29.44 in0.7 miSouth (180°)8.1 mph19.6 mphSnowSnow
2:50 PM32.0 °F30.2 °F93 %29.44 in1.1 miSouth (180°)8.1 mphSnowSnow
3:00 PM34.0 °F31.0 °F82 %29.50 inSSW (210°)9.2 mph
3:20 PM32.0 °F30.2 °F93 %29.44 in0.6 miSouth (180°)8.1 mphSnowSnow
3:50 PM32.0 °F30.2 °F93 %29.44 in1.2 miSouth (180°)8.1 mphSnowSnow
4:20 PM33.8 °F32.0 °F93 %29.44 in0.9 miSSW (200°)4.6 mphSnowSnow
4:50 PM33.8 °F32.0 °F93 %29.44 in3.7 miSSW (210°)8.1 mphSnowLight Snow
5:00 PM34.0 °F31.0 °F82 %29.51 inSW (230°)10.4 mph
5:20 PM33.8 °F30.2 °F87 %29.44 in0.8 miSSW (210°)9.2 mphSnowSnow
5:50 PM32.0 °F30.2 °F93 %29.47 in0.7 miSSW (210°)5.8 mphSnowSnow
6:00 PM34.0 °F31.0 °F86 %SW (220°)5.8 mph
6:20 PM33.8 °F32.0 °F93 %29.47 in1.9 miSSW (200°)6.9 mphSnowLight Snow
6:50 PM33.8 °F32.0 °F93 %29.50 in1.9 miSW (230°)4.6 mphSnowLight Snow
7:00 PM33.0 °F31.0 °F91 %29.57 in2.0 miSW (230°)5.8 mphSnowLight Snow
7:20 PM33.8 °F32.0 °F93 %29.50 in1.9 miWSW (240°)6.9 mphSnowSnow
7:50 PM33.8 °F32.0 °F93 %29.53 in6.2 miSW (230°)8.1 mphMostly Cloudy
8:00 PM34.0 °F30.0 °F81 %29.59 inWSW (240°)8.1 mph
8:20 PM33.8 °F30.2 °F87 %29.53 in6.2 miSW (230°)5.8 mphMostly Cloudy
8:50 PM33.8 °F30.2 °F87 %29.53 in6.2 miWSW (240°)9.2 mphMostly Cloudy
9:00 PM34.0 °F30.0 °F78 %29.62 inWSW (250°)9.2 mph
9:20 PM33.8 °F30.2 °F87 %29.56 in6.2 miWSW (240°)8.1 mphMostly Cloudy
9:50 PM33.8 °F28.4 °F81 %29.56 in6.2 miWSW (250°)6.9 mphMostly Cloudy
10:20 PM32.0 °F28.4 °F87 %29.59 in6.2 miWSW (240°)4.6 mphMostly Cloudy
10:50 PM32.0 °F28.4 °F87 %29.59 in6.2 miWest (260°)3.5 mphMostly Cloudy
11:00 PM33.0 °F28.0 °F75 %29.68 inWSW (240°)4.6 mph
11:20 PM32.0 °F28.4 °F87 %29.62 in6.2 miSSW (210°)5.8 mphMostly Cloudy
11:50 PM32.0 °F28.4 °F87 %29.62 in6.2 miSW (230°)9.2 mphSnowLight Snow
Hourly data recorded from LSMD, located miles away from Zürich, Switzerland







STORIES FROM OUR PARTNERS